Location: RyutenAO
(34.8939°N, 134.0022°E)
Time: 17:27:37
(UTC+09:00)

Oscar 17 - Visible Passes

Search period start: 02 December 2023 00:00
Search period end: 12 December 2023 00:00
Orbit: 771 x 788 km, 98.9° (Epoch: 01 December)

Date Brightness Start Highest point End Pass type
(mag) Time Alt. Az. Time Alt. Az. Time Alt. Az.
02 Dec 11.9 04:48:05 10° NNE 04:52:58 41° E 04:57:48 10° S visible
02 Dec 13.6 17:42:03 10° SW 17:45:26 18° W 17:48:50 10° NW visible
03 Dec 13.2 04:16:30 10° NE 04:20:09 19° E 04:23:48 10° SE visible
03 Dec 11.0 05:54:41 10° N 05:59:30 41° WNW 06:04:18 10° SW visible
04 Dec 10.6 05:21:49 10° NNE 05:26:59 89° WNW 05:32:09 10° SSW visible
05 Dec 11.8 04:49:27 10° NNE 04:54:20 42° E 04:59:13 10° S visible
05 Dec 13.6 17:43:29 10° SW 17:46:49 17° W 17:50:09 10° NW visible
06 Dec 13.1 04:17:49 10° NE 04:21:33 20° E 04:25:15 10° SE visible
06 Dec 11.0 05:56:04 10° N 06:00:52 41° WNW 06:05:40 10° SW visible
07 Dec 10.6 05:23:11 10° NNE 05:28:21 87° WNW 05:33:32 10° SSW visible
08 Dec 11.8 04:50:48 10° NNE 04:55:42 43° E 05:00:36 10° S visible
08 Dec 11.9 06:30:57 10° NNW 06:34:34 20° WNW 06:38:11 10° WSW visible
08 Dec 13.6 17:44:55 10° SW 17:48:11 17° W 17:51:27 10° NW visible
09 Dec 13.1 04:19:08 10° NE 04:22:55 20° E 04:26:40 10° SE visible
09 Dec 11.0 05:57:26 10° N 06:02:13 40° WNW 06:07:00 10° SW visible
10 Dec 10.5 05:24:32 10° NNE 05:29:43 85° WNW 05:34:53 10° SSW visible
11 Dec 11.7 04:52:08 10° NNE 04:57:04 44° E 05:01:59 10° S visible
11 Dec 11.9 06:32:20 10° NNW 06:35:55 19° WNW 06:39:30 10° WSW visible
11 Dec 13.6 17:46:20 10° SW 17:49:32 17° W 17:52:45 10° NW visible
